This is the latest recevied weather packets stored in our database for station/object IA5FYI-13. If no packets are shown the sender has not sent any weather packets the latest 10 day(s).
| Time | Temp. | Humidity | Pressure | Rain* | Wind** | Luminosity | Snow |
|---|---|---|---|---|---|---|---|
| 1777595423 | 15° C | 36% | 1020.3 hPa | 0 mm | - | - | - |
| 1777595109 | 15° C | 34% | 1020.7 hPa | 0 mm | - | - | - |
| 1777594812 | 15° C | 32% | 1020.3 hPa | 0 mm | - | - | - |
| 1777594512 | 15° C | 31% | 1020 hPa | 0 mm | - | - | - |
| 1777594212 | 15° C | 29% | 1020 hPa | 0 mm | - | - | - |
| 1777593909 | 15° C | 29% | 1020 hPa | 0 mm | - | - | - |
| 1777593636 | 15° C | 27% | 1020 hPa | 0.25 mm | - | - | - |
| 1777593310 | 15° C | 27% | 1020 hPa | 0.25 mm | - | - | - |
| 1777593012 | 15° C | 27% | 1020.3 hPa | 0.25 mm | - | - | - |
| 1777592713 | 15° C | 28% | 1020 hPa | 0.25 mm | - | - | - |
| 1777592413 | 15° C | 30% | 1020 hPa | 0.25 mm | - | - | - |
| 1777592109 | 15° C | 27% | 1020 hPa | 0.25 mm | - | - | - |
| 1777591822 | 16.11° C | 25% | 1020 hPa | 0.25 mm | - | - | - |
| 1777591509 | 16.11° C | 28% | 1020 hPa | 0 mm | - | - | - |
| 1777591213 | 15° C | 29% | 1020 hPa | 0 mm | - | - | - |
| 1777590912 | 15° C | 30% | 1020 hPa | 0 mm | - | - | - |
| 1777590614 | 15° C | 33% | 1020 hPa | 0 mm | - | - | - |
| 1777590032 | 15° C | 33% | 1019.6 hPa | 0 mm | - | - | - |
| 1777589709 | 15° C | 35% | 1020 hPa | 0 mm | - | - | - |
| 1777589412 | 15° C | 36% | 1020 hPa | 0 mm | - | - | - |
| 1777589112 | 15° C | 35% | 1020 hPa | 0 mm | - | - | - |
| 1777588813 | 15° C | 35% | 1020 hPa | 0 mm | - | - | - |
| 1777588509 | 15° C | 35% | 1020 hPa | 0 mm | - | - | - |
| 1777588223 | 15° C | 37% | 1020 hPa | 0 mm | - | - | - |
| 1777587909 | 15° C | 37% | 1019.6 hPa | 0 mm | - | - | - |
* Rain latest hour (hover to see other rain measurements)
** Current wind speed in m/s (hover to see current wind gust speed)